FW2486 Weather Reports


Display with metric or nautical units.
time (UTC)temp
F
wind
direction
speed
MPH
gust
MPH
rain 1hr
in
rain 24hr
in
rain mn
in
humidity
%
barometer
mb
20260506044535 56 292 0.0 2.0 0.00 0.00 0.00 80 1017.4
20260506041531 58 261 0.0 3.0 0.00 0.00 0.00 76 1017.2
20260506040039 59 302 3.0 6.0 0.00 0.00 0.00 74 1016.9
20260506034607 60 280 4.0 7.0 0.00 0.00 0.00 73 1016.7
20260506033034 61 291 2.0 6.0 0.00 0.00 0.00 71 1016.4
20260506031531 62 171 2.0 8.0 0.00 0.00 0.00 68 1016.2
20260506030037 64 259 3.0 7.0 0.00 0.00 0.00 65 1016.0
20260506024535 66 320 7.0 15.0 0.00 0.00 0.00 62 1015.7
20260506021609 0 0 0.0 0.0 0.00 0.00 0.00 100
20260506020107 70 329 6.0 14.0 0.00 0.00 0.00 57 1015.3
20260506014536 72 309 6.0 12.0 0.00 0.00 0.00 54 1015.2
20260506013035 74 292 4.0 11.0 0.00 0.00 0.00 53 1015.1
20260506011641 74 294 3.0 8.0 0.00 0.00 0.00 52 1015.0
20260506010034 75 283 6.0 13.0 0.00 0.00 0.00 48 1015.0
20260506004542 77 226 6.0 14.0 0.00 0.00 0.00 47 1014.9
20260506003036 77 176 3.0 10.0 0.00 0.00 0.00 47 1015.0
20260506000035 76 297 5.0 6.0 0.00 0.00 0.00 51 1015.1
20260505234608 76 320 6.0 10.0 0.00 0.00 0.00 51 1015.2
20260505231536 76 316 6.0 12.0 0.00 0.00 0.00 51 1015.1
20260505230147 76 300 5.0 11.0 0.00 0.00 0.00 50 1015.3
20260505224607 76 319 5.0 9.0 0.00 0.00 0.00 50 1015.3
20260505223029 77 292 6.0 14.0 0.00 0.00 0.00 48 1015.5
20260505221606 77 271 5.0 12.0 0.00 0.00 0.00 48 1015.6
20260505220034 77 216 6.0 12.0 0.00 0.00 0.00 48 1015.7
20260505214534 77 202 6.0 11.0 0.00 0.00 0.00 49 1015.8
20260505213143 76 211 6.0 14.0 0.00 0.00 0.00 49 1015.9
20260505210030 75 212 6.0 13.0 0.00 0.00 0.00 50 1016.2
20260505204531 74 204 6.0 15.0 0.00 0.00 0.00 50 1016.2
20260505203037 74 214 6.0 13.0 0.00 0.00 0.00 51 1016.4
20260505201610 73 211 7.0 13.0 0.00 0.00 0.00 52 1016.5
20260505200041 72 204 7.0 21.0 0.00 0.00 0.00 53 1016.5
20260505194535 71 210 8.0 18.0 0.00 0.00 0.00 55 1016.6
20260505191642 70 218 6.0 10.0 0.00 0.00 0.00 56 1016.8
20260505190106 69 209 7.0 15.0 0.00 0.00 0.00 56 1016.9
20260505184535 68 207 7.0 15.0 0.00 0.00 0.00 58 1016.9
20260505183036 67 205 6.0 14.0 0.00 0.00 0.00 59 1017.0
20260505181611 67 204 8.0 16.0 0.00 0.00 0.00 59 1017.0
20260505174643 65 202 8.0 18.0 0.00 0.00 0.00 61 1017.1
20260505170106 63 206 9.0 16.0 0.00 0.00 0.00 63 1017.0
20260505164532 63 200 8.0 18.0 0.00 0.00 0.00 63 1017.0
20260505163149 63 205 8.0 21.0 0.00 0.00 0.00 62 1016.9
20260505161536 63 198 7.0 17.0 0.00 0.00 0.00 62 1016.9
20260505153028 62 200 7.0 18.0 0.00 0.00 0.00 63 1016.9
20260505124535 56 157 5.0 12.0 0.00 0.00 0.00 77 1016.2
20260505123032 57 175 5.0 11.0 0.00 0.00 0.00 77 1016.2
20260505120031 57 166 5.0 18.0 0.00 0.00 0.00 76 1016.1
20260505114532 58 184 5.0 13.0 0.00 0.00 0.00 75 1016.0
20260505113037 58 174 7.0 25.0 0.00 0.00 0.00 75 1015.9
20260505111531 58 193 12.0 21.0 0.00 0.00 0.00 75 1015.9
20260505101534 59 182 7.0 21.0 0.00 0.00 0.00 74 1015.4
20260505100045 60 178 8.0 22.0 0.00 0.00 0.00 73 1015.4
20260505094535 60 196 8.0 18.0 0.00 0.00 0.00 73 1015.3
20260505093037 60 191 8.0 23.0 0.00 0.00 0.00 73 1015.2
20260505091535 61 181 7.0 21.0 0.00 0.00 0.00 73 1015.1
20260505090030 61 183 6.0 19.0 0.00 0.00 0.00 72 1015.1
20260505084606 0 0 0.0 0.0 0.00 0.00 0.00 100
20260505083035 62 195 6.0 18.0 0.00 0.00 0.00 72 1014.8
20260505080036 62 181 5.0 13.0 0.00 0.00 0.00 72 1014.8
20260505074535 62 169 6.0 12.0 0.00 0.00 0.00 72 1014.8
20260505073036 63 181 6.0 17.0 0.00 0.00 0.00 72 1014.7
20260505071608 62 175 5.0 12.0 0.00 0.00 0.00 72 1014.6
20260505070031 62 156 5.0 11.0 0.00 0.00 0.00 71 1014.5
20260505064534 63 142 4.0 9.0 0.00 0.00 0.00 71 1014.4
20260505063033 0 0 0.0 0.0 0.00 0.00 0.00 100
20260505061535 0 0 0.0 0.0 0.00 0.00 0.00 100
20260505060036 63 159 3.0 10.0 0.00 0.00 0.00 67 1014.6
20260505054607 64 168 4.0 11.0 0.00 0.00 0.00 66 1014.5